Content
SEND FEEDBACK

Daily
Averages
Monthly
Summary
United States of America

UMATAC, GUAM


Home > North America > United States > Guam
Elevation: 190 feet     Latitude: 13 17N     Longitude: 144 40E

WEATHER
 
SELECT A DAY
Number of Records: 342,038;   Date Range: 1/1/95 - 7/29/14
 
SHARE

PRINT THIS DATA

[ ← Previous Day ]
WEATHER ALMANAC - FEBRUARY 20, 2013
[ Next Day → ]
[ °C ]   °F
Weather ElementAverageHighLow
Temperature79.1 °F84.4 °F (1:55 pm)76.5 °F (4:55 am)
Dewpoint72.8 °F75.2 °F (10:09 am)69.8 °F (3:45 am)
Humidity81.5 %89 % (12:03 am)69 % (1:55 pm)
Barometer29.80 in29.85 in (9:20 am)29.76 in (2:55 pm)
Wind Speed16.8 mph21.9 mph (9:25 am)
Wind Gust28.8 mph (8:44 am)
Weather ElementAverage
Visibility10 mi
Wind DirectionENE (69 °)

Weather ElementTotal
Precipitation---
Cooling Degree Days15.5 (Base 65)
Growing Degree Days30.5 (Base 50)
Averaged from 104 records on February 20, 2013
WEATHER CONDITIONS BREAKOUT
WIND DIRECTION BREAKOUT
WEATHER BY HOUR - FEBRUARY 20, 2013
[ °C ]   °F
Local TimeTemperatureDewpointHumidityBarometerVisibilityWind DirectionWind SpeedGust SpeedPrecipitationEventsConditions
12:03 AM77.0 °F73.4 °F89 %29.83 in10.0 miENE (60°)15.0 mph21.9 mphMostly Cloudy
12:27 AM77.0 °F73.4 °F89 %29.83 in10.0 miENE (70°)20.7 mphMostly Cloudy
12:40 AM77.0 °F73.4 °F89 %29.83 in10.0 miEast (80°)16.1 mphMostly Cloudy
12:55 AM77.5 °F73.2 °F86 %29.82 in10.0 miEast (80°)18.4 mphMostly Cloudy
1:01 AM77.0 °F73.4 °F89 %29.82 in10.0 miEast (80°)17.3 mphMostly Cloudy
1:03 AM77.0 °F73.4 °F89 %29.82 in10.0 miEast (80°)15.0 mphScattered Clouds
1:10 AM77.0 °F73.4 °F89 %29.82 in10.0 miEast (80°)13.8 mphMostly Cloudy
1:19 AM77.0 °F73.4 °F89 %29.81 in10.0 miEast (80°)15.0 mphMostly Cloudy
1:21 AM77.0 °F73.4 °F89 %29.81 in10.0 miEast (80°)15.0 mphMostly Cloudy
1:43 AM77.0 °F71.6 °F83 %29.81 in10.0 miEast (80°)17.3 mphScattered Clouds
1:55 AM77.5 °F73.2 °F86 %29.81 in10.0 miENE (70°)16.1 mphMostly Cloudy
1:58 AM77.0 °F73.4 °F89 %29.81 in10.0 miENE (70°)16.1 mphScattered Clouds
1:59 AM77.0 °F73.4 °F89 %29.81 in10.0 miEast (80°)16.1 mphMostly Cloudy
2:04 AM77.0 °F73.4 °F89 %29.81 in10.0 miENE (70°)19.6 mphMostly Cloudy
2:33 AM77.0 °F71.6 °F83 %29.79 in10.0 miENE (70°)19.6 mphMostly Cloudy
2:55 AM77.4 °F72.1 °F84 %29.79 in10.0 miENE (70°)15.0 mphMostly Cloudy
3:14 AM77.0 °F71.6 °F83 %29.78 in10.0 miENE (70°)17.3 mphScattered Clouds
3:17 AM77.0 °F71.6 °F83 %29.78 in10.0 miENE (70°)16.1 mphMostly Cloudy
3:19 AM77.0 °F71.6 °F83 %29.78 in10.0 miEast (80°)15.0 mphScattered Clouds
3:20 AM77.0 °F71.6 °F83 %29.78 in10.0 miEast (80°)15.0 mphMostly Cloudy
3:34 AM77.0 °F71.6 °F83 %29.78 in10.0 miEast (80°)16.1 mphScattered Clouds
3:45 AM77.0 °F69.8 °F78 %29.78 in10.0 miEast (80°)17.3 mphMostly Cloudy
3:47 AM77.0 °F69.8 °F78 %29.78 in10.0 miENE (70°)16.1 mphScattered Clouds
3:55 AM77.2 °F70.5 °F80 %29.78 in10.0 miEast (80°)17.3 mphPartly Cloudy
4:22 AM77.0 °F71.6 °F83 %29.78 in10.0 miENE (70°)16.1 mphMostly Cloudy
4:30 AM77.0 °F71.6 °F83 %29.78 in10.0 miEast (80°)13.8 mphMostly Cloudy
4:38 AM77.0 °F71.6 °F83 %29.78 in10.0 miEast (80°)16.1 mphMostly Cloudy
4:39 AM77.0 °F71.6 °F83 %29.78 in10.0 miEast (80°)16.1 mphRainLight Rain
4:49 AM77.0 °F73.4 °F89 %29.78 in10.0 miENE (70°)13.8 mphScattered Clouds
4:55 AM76.5 °F72.9 °F89 %29.78 in10.0 miENE (70°)13.8 mph0.00 inScattered Clouds
4:57 AM77.0 °F73.4 °F89 %29.78 in10.0 miENE (70°)13.8 mphMostly Cloudy
5:08 AM77.0 °F73.4 °F89 %29.78 in10.0 miENE (60°)13.8 mphMostly Cloudy
5:10 AM77.0 °F73.4 °F89 %29.78 in10.0 miENE (70°)12.7 mphMostly Cloudy
5:12 AM77.0 °F73.4 °F89 %29.78 in10.0 miENE (70°)15.0 mphMostly Cloudy
5:14 AM77.0 °F73.4 °F89 %29.78 in10.0 miENE (60°)13.8 mphMostly Cloudy
5:21 AM77.0 °F73.4 °F89 %29.78 in10.0 miENE (60°)10.4 mphRainLight Rain
5:30 AM77.0 °F73.4 °F89 %29.79 in10.0 miENE (70°)12.7 mph19.6 mphRainLight Rain
5:32 AM77.0 °F73.4 °F89 %29.79 in10.0 miENE (70°)13.8 mphMostly Cloudy
5:42 AM77.0 °F73.4 °F89 %29.79 in10.0 miENE (60°)16.1 mphMostly Cloudy
5:44 AM77.0 °F73.4 °F89 %29.79 in10.0 miENE (70°)15.0 mphMostly Cloudy
5:53 AM77.0 °F73.4 °F89 %29.79 in10.0 miENE (70°)13.8 mphMostly Cloudy
5:55 AM77.2 °F72.7 °F86 %29.79 in10.0 miENE (70°)18.4 mph0.00 inMostly Cloudy
6:20 AM77.0 °F73.4 °F89 %29.81 in10.0 miENE (70°)12.7 mphMostly Cloudy
6:55 AM76.8 °F73.0 °F88 %29.81 in10.0 miEast (80°)17.3 mph21.9 mphMostly Cloudy
7:16 AM77.0 °F73.4 °F89 %29.82 in10.0 miENE (70°)17.3 mphMostly Cloudy
7:55 AM78.4 °F73.8 °F85 %29.83 in10.0 miENE (70°)18.4 mph26.5 mphMostly Cloudy
8:44 AM78.8 °F73.4 °F83 %29.84 in10.0 miENE (70°)20.7 mph28.8 mphOvercast
8:48 AM80.6 °F73.4 °F79 %29.84 in10.0 miEast (80°)17.3 mph28.8 mphOvercast
8:53 AM80.6 °F73.4 °F79 %29.84 in10.0 miEast (80°)18.4 mph26.5 mphOvercast
8:55 AM79.9 °F73.0 °F80 %29.84 in10.0 miEast (80°)16.1 mphOvercast
9:02 AM78.8 °F73.4 °F83 %29.84 in6.0 miENE (70°)19.6 mph27.6 mphRainLight Rain
9:20 AM77.0 °F73.4 °F89 %29.85 in10.0 miENE (70°)19.6 mph24.2 mphMostly Cloudy
9:25 AM78.8 °F73.4 °F83 %29.85 in10.0 miENE (70°)21.9 mphOvercast
10:09 AM80.6 °F75.2 °F84 %29.85 in10.0 miENE (70°)18.4 mphMostly Cloudy
10:55 AM81.0 °F73.6 °F78 %29.84 in10.0 miEast (80°)18.4 mph25.3 mphMostly Cloudy
10:56 AM80.6 °F73.4 °F79 %29.84 in10.0 miEast (80°)20.7 mphMostly Cloudy
11:00 AM80.6 °F75.2 °F84 %29.83 in10.0 miENE (70°)17.3 mphMostly Cloudy
11:31 AM82.4 °F73.4 °F74 %29.82 in10.0 miENE (70°)21.9 mphMostly Cloudy
11:55 AM82.4 °F73.4 °F74 %29.82 in10.0 miENE (70°)21.9 mphScattered Clouds
12:08 PM82.4 °F73.4 °F74 %29.81 in10.0 miENE (70°)20.7 mphMostly Cloudy
12:22 PM84.2 °F73.4 °F70 %29.81 in10.0 miEast (80°)19.6 mphScattered Clouds
12:26 PM82.4 °F73.4 °F74 %29.81 in10.0 miENE (70°)20.7 mph26.5 mphMostly Cloudy
12:31 PM82.4 °F73.4 °F74 %29.81 in10.0 miENE (70°)19.6 mph26.5 mphScattered Clouds
12:33 PM82.4 °F73.4 °F74 %29.81 in10.0 miEast (80°)19.6 mph26.5 mphMostly Cloudy
12:36 PM84.2 °F73.4 °F70 %29.80 in10.0 miENE (70°)17.3 mph25.3 mphScattered Clouds
12:37 PM84.2 °F73.4 °F70 %29.81 in10.0 miENE (70°)18.4 mph25.3 mphMostly Cloudy
12:39 PM84.2 °F73.4 °F70 %29.81 in10.0 miENE (70°)19.6 mph25.3 mphScattered Clouds
12:40 PM84.2 °F73.4 °F70 %29.80 in10.0 miEast (80°)18.4 mph25.3 mphMostly Cloudy
12:46 PM82.4 °F73.4 °F74 %29.80 in10.0 miENE (70°)18.4 mph24.2 mphScattered Clouds
12:55 PM83.8 °F73.9 °F72 %29.80 in10.0 miENE (70°)16.1 mphPartly Cloudy
1:55 PM84.4 °F73.0 °F69 %29.78 in10.0 miENE (60°)18.4 mphScattered Clouds
2:55 PM83.5 °F72.9 °F70 %29.76 in10.0 miEast (80°)16.1 mphPartly Cloudy
3:11 PM84.2 °F73.4 °F70 %29.76 in10.0 miENE (70°)16.1 mphMostly Cloudy
3:18 PM82.4 °F73.4 °F74 %29.76 in10.0 miENE (70°)16.1 mphScattered Clouds
3:47 PM82.4 °F73.4 °F74 %29.76 in10.0 miENE (60°)16.1 mphMostly Cloudy
3:55 PM81.5 °F73.2 °F76 %29.76 in10.0 miENE (60°)13.8 mphMostly Cloudy
3:58 PM82.4 °F73.4 °F74 %29.76 in10.0 miENE (60°)17.3 mphMostly Cloudy
4:02 PM80.6 °F73.4 °F79 %29.76 in10.0 miENE (60°)15.0 mphMostly Cloudy
4:15 PM82.4 °F73.4 °F74 %29.76 in10.0 miENE (60°)16.1 mphMostly Cloudy
4:25 PM82.4 °F73.4 °F74 %29.76 in10.0 miENE (70°)16.1 mphMostly Cloudy
4:26 PM82.4 °F73.4 °F74 %29.76 in10.0 miENE (70°)15.0 mphMostly Cloudy
4:27 PM82.4 °F73.4 °F74 %29.76 in10.0 miENE (60°)13.8 mphMostly Cloudy
4:55 PM81.1 °F73.4 °F77 %29.77 in10.0 miNE (50°)18.4 mphMostly Cloudy
5:29 PM78.8 °F73.4 °F83 %29.77 in10.0 miENE (60°)15.0 mphScattered Clouds
5:55 PM79.2 °F73.0 °F81 %29.77 in10.0 miNE (50°)20.7 mphScattered Clouds
6:41 PM78.8 °F73.4 °F83 %29.78 in10.0 miENE (60°)16.1 mphMostly Cloudy
6:51 PM78.8 °F71.6 °F78 %29.78 in10.0 miENE (60°)17.3 mphScattered Clouds
6:55 PM78.1 °F71.8 °F81 %29.79 in10.0 miENE (60°)17.3 mphScattered Clouds
6:56 PM78.8 °F71.6 °F78 %29.79 in10.0 miENE (60°)17.3 mphMostly Cloudy
7:22 PM78.8 °F71.6 °F78 %29.79 in10.0 miENE (60°)15.0 mphScattered Clouds
7:31 PM78.8 °F71.6 °F78 %29.79 in10.0 miENE (60°)15.0 mphMostly Cloudy
7:53 PM78.8 °F71.6 °F78 %29.80 in10.0 miENE (60°)16.1 mphScattered Clouds
7:55 PM78.3 °F72.3 °F82 %29.80 in10.0 miENE (60°)16.1 mphScattered Clouds
8:37 PM78.8 °F71.6 °F78 %29.82 in10.0 miENE (60°)19.6 mph24.2 mphMostly Cloudy
8:39 PM78.8 °F73.4 °F83 %29.82 in10.0 miENE (60°)18.4 mph24.2 mphScattered Clouds
8:41 PM78.8 °F73.4 °F83 %29.82 in10.0 miENE (60°)17.3 mphMostly Cloudy
8:55 PM78.3 °F72.9 °F83 %29.82 in10.0 miNE (50°)19.6 mphMostly Cloudy
9:03 PM78.8 °F71.6 °F78 %29.83 in10.0 miENE (60°)19.6 mphMostly Cloudy
9:06 PM78.8 °F71.6 °F78 %29.83 in10.0 miENE (60°)19.6 mphScattered Clouds
9:55 PM77.5 °F71.2 °F81 %29.83 in10.0 miENE (60°)15.0 mphPartly Cloudy
10:44 PM77.0 °F71.6 °F83 %29.83 in10.0 miENE (60°)17.3 mphMostly Cloudy
10:46 PM77.0 °F71.6 °F83 %29.83 in10.0 miENE (60°)16.1 mphScattered Clouds
10:55 PM77.2 °F71.2 °F82 %29.83 in10.0 miENE (60°)16.1 mphScattered Clouds
11:55 PM77.7 °F71.8 °F82 %29.83 in10.0 miENE (60°)17.3 mphScattered Clouds
Hourly data recorded from PGUA, located miles away from Umatac, Guam







STORIES FROM OUR PARTNERS